Location: Newark
(52.1752°N, 10.4140°W)
Time: 19:27:31
(UTC+00:00)

N. Korean satellite - Pass Details

Date: 18 November 2019
Orbit: 456 x 506 km, 97.2° (Epoch: 05 December)

Event Time Altitude Azimuth Distance (km) Brightness Sun altitude
Rises 06:31:12 0° 16° (NNE) 2,625 10.3 -14.4°
Reaches altitude 10° 06:33:20 10° 20° (NNE) 1,732 9.4 -14.0°
Maximum altitude 06:37:01 60° 101° (E) 583 7.2 -13.5°
Drops below altitude 10° 06:40:40 10° 182° (S) 1,702 9.5 -13.0°
Sets 06:42:44 0° 186° (S) 2,573 10.4 -12.6°
